A/2019 T1

Japanese version
Home page
Updated on May 4, 2021

---------------------------------------------------------------------

* Profile

Discovery Date October 8, 2019
Magnitude 20.7 mag
Discoverer Pan-STARRS 2 (Haleakala)

* Pictures

* Orbital Elements

Epoch 2021 Jan. 26.0 TT = JDT 2459240.5
T 2021 Jan. 14.26772 TT                                 Rudenko
q   4.2815791            (2000.0)            P               Q
z  +0.0261423      Peri.   91.03170     +0.04423597     -0.99360163
 +/-0.0000000      Node     6.95382     -0.81058126     -0.09649959
e   0.8880697      Incl.  120.86970     +0.58395307     -0.05868249
H   13.0
From 131 observations 2017 Sept. 16-2021 Feb. 15, mean residual 0".3.

* Magnitudes Graph

        H = 13.0  G = 0.15

---------------------------------------------------------------------

The orbital elements are published on M.P.E.C. 2021-F20.
The magnitudes graphs are made with Comet for Windows.

---------------------------------------------------------------------

Copyright(C) Seiichi Yoshida (comet@aerith.net). All rights reserved.